Lapse_Rate
6.1 6.4 6.5 7.0 6.6 5.7 3.1 2.4 6.4 2.9 3.4 4.7 4.1 6.5 6.5 6.7 6.5 6.4 6.5 6.5 6.5 6.5 6.5 6.5 6.5 6.5 6.5 6.5 6.5 6.5 6.5 6.5 6.5 6.5 6.5 6.5 6.5 6.5 6.5 6.5 6.5 6.5 6.5 6.5
5.8 6.1 6.5 6.9 7.2 6.4 2.8 0.9 3.3 3.4 4.2 6.5 6.5 6.5 6.5 6.5 6.5 6.5 6.5 6.5 6.5 6.5 6.5 6.5 6.5 6.5 6.5 6.4 6.5 6.5 6.5 6.5 6.5 6.5 6.5 6.5 6.5 6.5 6.5 6.5 6.5 6.5 6.5 6.5
5.6 5.9 6.2 6.7 6.9 6.9 2.6 2.4 6.5 3.6 3.7 3.8 6.2 6.5 6.5 6.5 6.3 6.5 6.4 6.5 6.5 6.5 6.5 6.5 6.5 6.5 6.5 6.5 6.5 6.9 6.5 6.5 6.5 6.5 6.5 6.5 6.5 6.5 6.5 6.5 6.5 6.5 6.5 6.5
5.5 5.7 5.8 6.2 6.6 6.4 3.2 -0.3 4.5 1.8 6.5 5.4 6.5 6.4 6.5 6.5 6.5 6.4 6.3 6.5 6.5 6.5 6.5 6.5 6.5 6.5 6.5 6.5 6.7 6.5 6.5 6.5 6.5 6.5 6.5 6.5 6.5 6.5 6.5 6.5 6.5 6.5 6.5 6.5
5.5 5.6 5.6 5.6 6.1 5.1 3.3 1.3 2.2 0.3 -0.1 1.9 6.5 6.5 6.5 6.5 6.5 6.5 6.5 6.5 6.5 6.5 6.5 6.5 6.5 6.5 6.5 6.5 6.5 6.5 6.5 6.5 6.5 6.5 6.5 6.5 6.5 6.5 6.5 6.5 6.5 6.5 6.5 6.5
5.4 5.4 5.4 5.3 5.4 5.2 4.0 2.1 2.1 3.5 5.6 6.1 6.5 6.5 6.5 6.5 6.5 5.9 6.2 6.4 6.5 6.5 6.5 5.5 5.8 6.0 6.1 6.4 6.5 6.5 6.5 6.5 6.5 6.5 6.5 6.5 6.5 6.5 6.5 6.5 6.5 6.5 6.5 6.5
5.7 5.6 5.4 5.1 5.1 4.6 3.8 3.4 4.8 5.4 6.5 6.5 6.5 6.5 6.3 6.5 6.5 6.5 6.3 5.7 6.5 5.9 4.8 4.3 5.1 6.0 6.5 6.6 6.5 6.6 6.5 6.5 6.5 6.5 6.5 6.5 6.5 6.5 6.5 6.5 6.5 6.5 6.5 6.5
4.5 5.1 5.7 5.4 5.5 5.4 2.7 2.2 4.4 5.0 6.5 6.5 6.3 6.3 6.5 6.0 5.8 6.4 6.2 5.5 5.2 4.6 5.4 6.5 6.5 6.5 6.5 6.5 6.5 6.5 6.5 6.5 6.5 6.5 6.5 6.5 6.5 6.5 6.5 6.5 6.5 6.5 6.5 6.5
5.5 5.5 5.2 4.8 5.0 5.4 3.0 1.8 2.3 3.7 6.4 6.5 5.3 6.2 4.7 6.5 6.5 6.5 6.0 5.6 4.8 5.8 6.5 6.5 6.5 6.5 6.5 6.5 6.5 6.5 6.5 6.5 6.5 6.5 6.5 6.5 6.5 6.5 6.3 6.5 6.5 6.5 6.5 6.5
5.7 5.7 6.4 5.8 5.7 5.5 4.9 3.2 2.8 2.8 6.1 5.1 4.4 6.1 5.6 3.2 4.7 6.5 5.8 5.5 6.0 5.6 6.5 6.5 6.5 6.5 6.5 6.5 6.5 6.5 6.5 6.5 6.5 6.5 6.5 6.5 6.5 6.5 6.0 6.5 6.5 6.3 6.1 6.1
7.2 6.3 6.1 6.4 6.6 6.5 5.1 5.3 2.8 4.9 4.4 5.4 4.5 4.7 5.8 3.8 3.8 6.5 5.9 6.3 5.8 6.5 6.5 6.5 6.5 6.5 6.5 6.5 6.5 6.5 6.5 6.5 6.5 6.5 6.5 6.5 6.1 6.5 6.5 6.2 5.6 5.3 5.5 5.5
8.8 8.7 8.8 8.7 8.7 8.9 8.3 6.2 4.2 4.4 4.4 4.6 2.8 3.9 4.0 6.3 4.4 5.8 4.7 5.6 5.3 6.2 6.5 6.5 6.5 6.5 6.5 6.5 6.5 6.5 6.5 6.5 6.5 6.5 6.5 6.4 5.3 4.0 1.6 1.6 4.4 5.3 4.4 4.3
9.1 8.7 8.9 8.8 9.0 8.7 8.8 6.7 5.1 4.1 4.8 5.2 4.7 5.0 3.7 3.8 4.1 4.2 5.4 4.9 3.4 3.2 3.9 6.2 6.5 6.5 6.5 6.5 6.5 6.5 6.5 6.0 6.5 6.5 6.5 6.5 5.6 2.2 2.5 1.9 2.7 4.4 4.1 4.0
8.4 8.3 8.5 8.5 8.5 8.5 8.8 6.1 4.2 5.3 5.3 5.8 3.9 2.5 3.0 0.8 1.6 3.2 4.6 4.9 3.9 3.5 4.9 6.2 6.5 6.5 5.1 6.5 6.5 6.5 6.4 6.5 6.5 6.5 6.5 5.8 3.6 1.4 2.6 2.7 3.0 3.2 3.5 3.2
7.8 7.7 7.9 7.9 7.9 8.1 7.4 4.4 3.7 5.7 6.5 6.5 3.4 1.7 0.8 0.9 2.5 3.4 3.9 4.8 4.7 5.1 5.9 6.5 6.5 6.1 6.1 6.4 6.5 6.5 5.7 6.5 6.5 6.5 6.1 4.9 4.4 -0.0 -1.6 0.5 2.4 4.2 4.0 3.8
7.8 7.6 7.7 7.7 7.8 7.8 5.1 4.0 5.1 5.0 6.0 6.2 6.5 3.7 1.5 3.3 4.0 4.2 4.5 4.7 5.4 5.2 5.7 6.4 5.6 2.3 6.0 6.5 6.5 6.7 2.1 1.8 2.0 6.2 1.1 2.2 -0.5 -1.9 -3.4 -1.0 -1.2 -1.9 -1.3 1.2
7.6 7.5 7.5 7.7 7.7 5.1 5.1 4.4 4.9 5.5 5.6 5.7 6.4 6.6 4.5 4.1 5.6 5.8 6.0 5.6 5.7 5.6 6.0 6.4 6.3 5.2 6.2 6.5 6.5 6.1 2.6 -0.3 -1.0 -2.5 -0.0 2.9 -0.1 1.9 -2.7 -2.7 -4.3 -4.1 -3.8 -3.5
7.4 7.5 7.5 6.7 6.0 5.2 4.2 3.5 6.4 5.7 5.5 5.5 6.5 6.5 5.7 4.7 4.8 6.4 5.6 6.2 6.0 6.1 6.3 6.1 6.5 6.0 6.3 6.5 6.1 4.4 0.6 0.1 -1.0 -1.4 -4.8 -2.3 -3.1 -3.0 -3.4 -4.0 -3.1 -1.5 -2.4 -4.0
7.6 6.9 6.0 3.5 2.9 4.0 4.6 5.6 5.4 5.0 5.6 5.8 6.2 6.5 6.5 5.3 5.5 5.8 5.9 6.0 6.5 6.1 6.5 6.5 6.5 6.5 6.5 6.5 6.4 3.9 1.7 1.3 0.7 -2.4 -3.7 -4.8 -1.5 -2.6 -2.7 -4.1 -3.5 -2.0 -0.5 -2.1
7.3 4.4 4.6 1.1 4.4 5.5 4.4 2.7 4.2 5.9 5.7 5.5 6.5 4.8 6.5 5.3 5.8 6.5 6.6 5.9 6.5 6.5 6.5 6.4 6.5 6.5 6.0 5.0 5.1 1.4 0.1 -1.0 -1.4 1.4 2.0 -0.1 -0.4 -0.5 -2.6 -3.7 -4.7 -3.2 -2.0 -2.7
4.2 4.0 1.2 1.7 4.5 4.0 -0.3 1.9 3.9 3.2 6.5 5.4 5.5 5.2 6.5 5.6 6.5 6.5 6.7 6.5 6.5 6.5 6.5 6.5 6.5 6.5 6.2 3.9 3.7 -0.4 -1.2 -1.6 -1.9 -2.1 -1.8 -2.2 -3.1 -2.3 -3.2 -3.2 -3.0 -2.4 -1.8 -1.1
4.3 3.6 3.1 2.7 1.6 0.7 5.9 6.5 5.8 6.5 6.5 5.7 6.4 5.7 6.1 5.7 5.6 6.5 6.6 6.5 6.5 6.5 6.2 6.5 6.5 6.5 5.0 3.6 2.5 1.1 -0.7 -1.2 -0.7 -2.1 -1.2 -1.6 -1.9 -4.9 -4.4 -4.3 -3.3 -3.5 -3.1 -2.3
3.0 2.5 1.0 2.4 2.1 6.5 6.5 6.5 6.5 6.5 5.7 4.3 4.5 6.4 5.5 5.3 6.0 6.4 6.5 6.5 6.5 6.3 6.5 6.5 6.5 6.0 5.2 4.1 2.7 1.8 1.3 0.9 1.2 0.8 -0.9 -1.0 -2.6 -2.8 -5.3 -3.9 -3.1 -2.7 -1.7 -2.1
5.1 3.3 6.5 6.5 6.5 6.5 6.5 6.5 6.5 3.2 3.0 3.9 4.2 4.5 5.8 4.4 6.5 6.5 6.5 6.5 6.5 6.5 6.5 6.5 6.5 5.8 5.4 4.8 3.8 2.5 2.5 2.2 1.7 1.1 0.8 0.5 -0.1 -0.5 -0.6 -1.7 -1.9 -1.6 -1.1 -0.9
4.5 4.7 6.5 6.5 5.0 3.7 1.4 -1.0 1.1 2.1 3.6 3.3 4.1 5.0 4.9 6.5 6.5 6.5 6.5 6.5 6.5 6.5 6.5 6.5 6.7 6.1 5.7 5.2 4.8 4.5 4.3 4.1 4.0 3.8 3.4 3.1 2.5 1.5 1.7 0.7 -0.1 -0.4 0.1 -0.1
4.6 4.3 5.5 5.6 6.1 6.2 4.0 3.9 3.3 1.2 1.7 2.0 2.3 6.5 6.5 6.5 6.5 6.5 6.5 6.5 6.5 6.5 6.5 7.0 6.7 5.6 5.0 4.9 4.8 4.7 4.2 4.2 4.0 3.8 3.9 3.6 3.2 3.3 3.4 2.9 2.1 1.6 1.2 0.6
5.7 6.2 4.5 4.2 5.3 5.9 2.7 0.7 0.4 -0.2 3.3 6.5 6.2 6.5 6.5 6.5 6.5 6.5 6.5 6.5 6.5 6.8 6.8 6.2 5.6 5.0 5.0 5.1 5.4 5.3 4.8 4.3 4.0 3.8 3.7 4.0 4.2 3.9 3.2 3.0 3.9 3.6 3.2 2.5
Wind_Speed
14 14 15 14 14 19 5 1 2 2 2 2 1 2 4 2 3 2 2 1 5 4 3 5 3 4 4 1 1 2 2 2 3 9 3 4 6 7 5 3 2 2 2 5
15 14 15 13 10 11 2 1 1 3 3 1 3 3 3 2 4 3 3 2 3 4 4 2 3 4 1 2 1 2 2 3 3 6 5 2 3 6 6 4 3 4 3 4
16 15 14 11 8 8 3 1 2 3 2 0 2 1 3 3 2 3 3 3 1 3 4 4 5 3 2 0 1 2 0 3 5 5 3 1 3 4 5 6 4 5 6 4
18 17 14 11 4 3 3 2 4 3 3 3 2 2 2 2 4 3 3 2 7 6 4 3 6 5 4 1 4 2 1 4 2 6 8 4 4 5 7 11 9 9 5 13
19 18 15 12 7 6 2 2 2 2 1 1 3 3 6 8 3 7 5 5 7 4 6 8 6 3 2 1 3 1 3 4 2 4 8 9 9 8 8 12 7 14 5 11
21 20 18 15 12 9 3 1 0 2 2 1 3 5 7 6 4 4 2 6 4 7 12 6 3 2 2 3 1 1 1 2 1 5 3 3 6 11 16 7 6 8 11 14
19 20 19 18 17 16 3 3 3 2 4 4 5 4 5 5 6 3 2 4 3 1 4 6 3 2 6 7 8 5 2 1 2 3 2 4 2 2 2 14 14 10 7 2
21 16 17 20 19 24 3 3 4 4 4 5 4 6 7 3 3 5 6 6 3 5 4 2 4 2 2 6 7 9 7 1 3 3 3 8 9 3 2 5 5 1 4 2
18 17 16 23 23 19 4 3 4 2 2 8 9 4 5 5 3 2 0 2 1 1 2 3 4 4 3 2 2 4 6 4 2 1 4 7 4 1 1 2 4 3 2 3
16 17 16 16 18 19 6 2 4 3 3 4 7 5 5 6 2 2 1 3 2 1 2 2 3 4 1 3 5 4 4 3 11 9 6 7 7 3 2 3 2 3 3 3
14 15 15 16 15 15 6 2 11 6 3 4 7 8 8 2 3 5 4 3 2 2 3 3 4 3 4 1 2 6 7 7 4 4 4 9 5 2 7 3 0 1 1 2
15 14 14 13 14 15 11 2 0 5 1 3 2 6 7 11 15 7 5 1 3 5 3 2 2 2 1 3 3 1 3 6 4 8 6 3 3 3 1 3 2 2 2 1
16 15 16 15 14 12 8 1 2 1 2 4 5 8 2 3 3 3 6 3 3 2 1 3 1 4 3 3 5 2 4 4 2 2 6 10 10 3 4 6 6 3 3 4
17 17 16 16 16 14 9 3 3 2 2 3 4 1 1 4 5 2 4 5 3 4 2 2 2 3 2 3 2 3 3 7 6 5 9 7 8 7 6 6 4 3 3 3
21 20 18 15 16 15 6 2 4 5 4 3 3 1 2 3 3 7 7 5 5 2 2 2 3 1 2 1 1 5 5 7 6 9 7 5 6 1 1 5 5 3 3 4
20 19 20 14 13 6 3 3 1 3 2 3 3 2 5 4 3 4 5 5 2 2 3 2 2 2 2 3 3 5 5 2 3 10 1 3 2 1 2 4 3 1 2 4
22 18 18 12 8 2 2 3 2 6 2 2 3 2 3 3 2 2 2 2 1 2 2 2 2 2 3 2 4 1 5 5 5 4 3 3 1 3 3 2 1 2 2 3
21 17 10 3 1 2 2 3 11 5 2 1 3 3 3 3 2 1 1 2 1 1 2 2 2 1 0 4 3 6 7 12 3 9 5 2 4 3 3 2 4 4 3 2
21 2 9 4 3 1 1 10 8 2 2 2 1 2 3 3 2 1 1 0 1 1 2 2 3 2 4 3 5 6 5 4 10 13 4 5 2 4 5 4 4 3 5 4
4 2 2 2 1 4 6 4 1 2 0 1 1 1 1 2 0 1 1 2 0 2 2 3 2 2 4 2 3 5 7 7 7 5 6 6 4 5 5 4 3 3 4 5
2 2 2 2 4 2 3 2 2 2 2 1 1 1 2 2 2 2 2 1 1 2 2 2 2 2 3 7 7 3 4 6 6 4 4 5 4 4 4 4 5 5 3 3
4 4 3 2 3 3 4 2 3 1 2 0 2 2 0 1 1 1 1 1 1 2 1 2 2 2 3 6 5 6 6 7 6 3 4 5 5 4 4 4 5 4 4 5
3 3 3 3 2 4 4 3 4 1 2 2 1 1 1 0 1 1 1 2 1 1 1 2 2 3 4 5 5 5 7 7 5 6 4 5 4 5 4 5 4 4 5 5
2 4 2 3 2 4 4 4 3 3 3 2 1 1 2 1 1 0 2 1 1 1 1 2 2 3 5 4 4 4 6 6 5 6 6 6 6 6 6 6 5 4 6 6
1 3 3 5 3 1 0 2 2 1 2 3 2 2 1 1 2 1 3 1 2 3 1 1 2 3 4 5 5 5 5 5 5 5 6 6 6 6 7 7 6 6 6 8
2 2 1 1 0 1 1 1 2 2 2 2 2 2 3 2 2 2 3 3 3 1 2 3 3 4 4 4 4 4 4 4 5 5 6 6 7 7 5 7 9 8 8 9
2 2 2 1 1 0 0 2 3 1 2 2 3 3 6 1 3 2 4 2 2 3 3 3 5 4 4 4 4 4 4 5 6 6 7 7 6 6 8 10 9 8 7 6
Wind_Direction
299 307 314 322 337 343 47 30 356 318 34 46 293 218 205 170 195 133 272 280 139 163 305 286 262 240 230 254 150 254 320 292 219 219 249 195 175 188 162 115 230 20 11 294
286 295 306 315 332 9 354 336 236 1 82 191 276 278 275 234 179 198 178 253 254 170 172 275 237 292 148 175 334 183 24 261 323 343 358 1 207 191 153 105 82 198 148 254
277 279 291 299 316 353 85 46 352 334 45 346 195 291 259 255 231 232 175 229 219 167 155 197 290 300 326 246 240 247 19 258 221 203 199 99 203 201 179 156 173 168 207 264
269 272 270 280 279 1 97 48 253 182 266 291 178 121 194 225 238 227 195 245 233 185 154 181 229 227 285 192 350 3 277 252 266 266 262 270 244 238 194 205 211 206 164 208
258 263 263 256 232 125 96 175 134 5 249 23 107 229 234 203 242 153 237 210 202 195 175 192 204 198 193 192 326 357 336 283 316 265 248 239 250 223 224 235 222 240 208 251
257 255 253 241 216 168 182 178 355 130 179 82 74 226 224 228 152 242 227 191 144 214 237 204 161 235 189 175 140 271 234 278 225 259 4 325 278 217 220 221 197 209 221 248
262 259 254 242 222 188 164 174 123 121 241 180 200 225 199 234 221 222 179 148 160 222 77 80 74 233 223 229 225 191 256 236 269 275 353 241 245 302 272 228 237 209 254 131
17 359 288 257 238 210 177 160 155 173 244 203 241 224 228 262 251 216 188 196 196 164 108 22 346 300 279 227 226 205 201 174 288 251 246 319 312 13 177 173 274 156 236 51
1 353 347 24 11 264 177 199 140 171 182 214 213 170 186 206 211 323 207 36 111 81 145 138 201 234 230 255 141 194 181 237 219 316 238 221 256 328 310 271 295 36 28 11
342 342 330 346 348 321 333 231 201 131 209 223 154 199 187 161 115 149 225 167 169 24 139 164 183 239 174 218 185 171 159 196 223 225 252 283 251 257 299 111 209 13 358 354
328 330 329 334 328 332 3 282 186 213 216 247 202 186 200 177 183 172 142 97 286 106 182 179 221 190 220 151 190 176 177 172 195 180 221 264 171 108 182 202 11 315 6 8
312 310 314 317 316 327 330 288 198 218 264 273 265 270 304 212 198 169 175 238 177 174 140 205 136 237 100 185 241 292 219 200 187 194 210 266 241 203 230 159 171 287 282 262
304 306 309 308 310 308 318 109 125 86 252 263 221 228 248 98 5 304 156 211 180 217 217 147 153 218 133 183 238 165 240 162 220 58 257 236 241 243 224 208 224 250 261 298
308 302 301 305 306 309 297 188 181 154 286 258 261 303 157 335 49 71 293 143 74 92 90 177 175 195 150 241 240 199 199 152 187 265 278 283 256 227 219 201 223 241 265 238
305 302 298 301 303 307 313 209 203 196 204 277 282 62 8 318 271 157 119 117 129 154 157 181 204 162 150 104 20 242 190 206 214 246 245 201 252 251 152 141 186 189 261 282
301 303 301 287 301 328 50 347 319 213 182 266 275 10 359 337 99 124 126 162 149 151 150 184 226 285 153 209 238 267 258 291 215 265 13 222 229 284 182 182 204 184 291 293
297 288 297 282 283 142 148 200 226 166 113 266 288 316 338 310 340 39 75 64 144 127 145 199 175 223 201 217 238 186 332 311 320 332 335 304 288 282 22 353 1 306 261 270
295 289 292 67 41 29 333 340 343 180 156 276 274 291 341 351 345 80 347 122 131 158 140 121 178 137 55 255 272 351 352 332 16 358 335 249 265 304 354 336 341 329 321 319
301 204 113 68 50 61 292 307 346 55 200 216 120 159 284 344 359 7 26 325 125 93 199 188 153 156 221 355 324 337 346 316 299 313 309 340 33 320 338 354 344 310 306 316
234 86 83 330 204 340 346 0 5 238 5 212 192 126 260 97 346 358 46 336 234 176 225 124 209 251 110 27 324 269 311 307 313 329 339 351 358 4 338 330 294 275 294 300
103 146 169 219 324 52 31 328 83 313 330 11 93 158 165 206 144 189 214 185 203 223 239 176 231 272 333 347 335 317 332 318 300 246 273 283 267 298 319 345 354 346 308 298
124 111 88 58 44 37 73 273 322 111 247 347 160 202 245 174 258 213 190 199 123 264 103 79 276 269 291 335 330 329 353 346 344 338 5 10 14 335 334 335 355 356 327 342
73 57 59 70 324 25 134 250 294 286 199 193 181 227 175 88 236 87 181 184 197 104 55 244 230 321 334 336 334 355 5 4 5 17 18 17 1 7 32 6 343 357 17 360
134 142 125 143 259 241 195 189 195 238 105 129 126 68 172 226 110 118 118 45 135 103 317 245 306 322 339 354 5 21 359 359 6 25 23 31 25 10 9 13 358 8 38 17
165 117 202 211 227 86 269 184 87 294 133 99 54 21 95 340 92 36 90 62 247 205 232 45 9 0 357 8 14 15 10 5 12 17 35 38 31 23 25 9 5 19 33 41
136 110 67 238 99 217 153 175 202 212 117 66 57 97 51 290 126 82 220 140 229 89 39 18 27 33 16 7 10 12 10 16 24 25 28 34 36 26 15 23 23 22 31 42
201 236 199 153 87 288 163 149 221 198 96 179 109 96 220 46 39 14 15 41 25 4 36 32 19 20 3 3 17 26 34 35 30 33 30 26 26 38 41 34 14 17 22 35